Lapse_Rate
2.0 0.7 0.5 0.1 0.4 0.5 0.5 0.3 0.2 0.3 0.3 0.3 0.3 -0.1 -0.4 -0.5 -0.6 -0.6 -0.5 -0.1 0.2 0.4 0.4 0.7 1.0 1.3 3.4 3.6 4.8 5.9 5.5 4.7 4.5 3.1 3.2 3.9 3.8 4.8 6.5 6.2 5.9 6.5 6.4 6.1 6.0 6.3 6.2
2.6 1.1 0.8 0.6 0.8 0.7 0.6 0.4 0.3 0.2 0.3 0.2 -0.1 -0.4 -0.7 -0.7 -0.8 -0.7 -0.7 -0.2 0.2 0.5 0.6 1.0 1.3 1.2 4.1 5.5 5.7 6.0 5.0 4.4 3.6 3.2 2.9 2.8 4.7 5.4 5.7 6.1 6.4 6.3 6.2 6.0 6.3 6.2 6.4
3.1 1.9 1.2 1.0 0.9 0.7 0.5 0.3 0.1 0.1 0.1 0.1 -0.3 -0.8 -0.9 -1.1 -1.0 -0.6 -0.5 -0.2 0.3 0.7 1.0 1.3 1.5 2.5 2.8 5.5 5.4 5.1 4.7 4.0 4.7 4.4 4.0 4.1 3.7 5.1 4.8 6.4 6.2 6.4 6.5 6.5 6.3 6.4 6.4
3.1 2.9 1.9 1.5 1.3 1.0 0.5 0.6 0.6 0.5 0.3 -0.1 -0.5 -1.0 -1.2 -1.2 -1.2 -0.8 -0.5 -0.1 0.2 1.0 1.7 1.8 1.8 3.4 5.0 6.2 5.7 4.5 3.4 3.9 3.9 5.5 4.9 4.3 4.5 5.1 5.8 6.3 6.3 6.5 6.5 6.5 6.5 6.2 6.3
3.4 3.6 2.3 1.8 1.5 1.4 1.4 1.0 0.8 0.5 0.5 0.0 -0.7 -1.3 -1.5 -1.4 -1.4 -0.9 -0.2 1.6 1.6 1.2 1.5 2.5 4.2 5.4 5.5 5.8 4.9 4.5 3.8 3.2 2.6 4.6 5.3 5.3 5.2 5.3 5.0 6.5 6.5 6.5 6.5 6.5 6.5 6.4 6.5
3.6 3.8 2.4 2.0 1.7 1.8 1.8 1.4 0.9 0.7 0.7 0.1 -0.7 -1.3 -1.7 -1.7 -1.1 -0.6 1.8 2.9 3.1 1.3 3.1 3.7 4.8 5.1 4.8 5.0 4.8 5.3 4.6 4.6 4.2 3.2 5.3 5.6 3.4 6.5 6.5 6.5 6.5 6.5 6.5 6.5 6.5 6.5 6.5
3.6 3.8 2.9 2.5 2.0 2.0 2.0 1.5 1.1 0.9 0.6 -0.1 -0.7 -1.2 -1.7 -1.5 -1.0 -0.1 1.1 1.4 2.9 2.7 2.2 4.7 5.1 6.3 5.6 4.8 5.2 4.5 4.6 3.6 5.0 5.6 6.5 5.2 6.5 6.5 6.5 6.5 6.5 6.5 6.5 6.5 6.5 6.5 6.5
3.6 3.6 3.3 2.8 2.5 2.1 2.0 1.8 1.5 1.0 0.6 0.2 -0.1 -1.0 -1.3 -1.1 0.1 0.3 -0.8 -1.3 0.5 1.9 5.1 6.2 6.3 5.7 6.0 5.4 5.2 4.7 3.7 5.0 5.0 6.5 5.8 6.5 6.5 6.5 6.5 6.5 6.5 6.5 6.5 6.5 6.5 6.5 6.5
3.5 3.5 3.5 3.0 2.8 2.3 2.2 1.8 1.4 1.0 0.5 -0.2 -0.6 -0.7 -1.2 -0.9 0.2 -0.7 -1.2 -0.1 1.5 1.4 4.4 5.8 5.9 5.6 5.5 5.5 6.1 4.9 4.1 4.6 6.0 6.5 6.5 6.5 6.5 6.4 6.5 6.5 6.5 6.5 6.5 6.5 6.5 6.5 6.5
3.4 3.3 3.3 3.2 2.7 2.5 2.4 2.0 1.4 0.9 0.4 -0.1 -0.5 -0.7 -0.8 -0.9 1.0 1.1 -0.3 1.3 1.7 1.2 6.5 6.4 5.9 5.9 5.9 6.4 6.2 6.1 5.2 5.6 6.0 6.5 6.5 6.5 6.5 6.5 6.5 6.5 6.5 6.5 6.5 6.5 6.5 6.5 6.5
3.5 3.1 3.4 3.3 3.0 2.8 2.7 2.1 1.6 1.1 0.5 0.2 -0.3 -0.7 -0.8 0.5 0.8 0.6 1.6 1.6 1.5 1.1 6.5 6.5 5.9 6.6 5.6 5.6 5.9 6.2 5.6 5.8 6.5 6.5 6.5 6.5 6.5 6.5 6.5 6.5 6.5 6.5 6.5 6.5 6.5 6.5 6.5
3.5 3.1 3.4 3.4 3.2 3.0 2.9 2.2 1.7 1.1 0.6 0.3 -0.4 -0.9 -0.5 0.0 -0.5 0.6 0.8 1.0 0.9 6.5 6.5 6.5 6.2 6.2 6.2 5.7 6.1 5.3 5.7 5.7 6.3 6.5 6.5 6.5 6.5 6.5 6.5 6.5 6.5 6.5 6.5 6.5 6.5 6.5 6.5
3.5 3.3 3.4 3.4 3.1 3.2 2.9 2.2 2.0 1.4 0.6 0.1 -0.4 -1.0 -0.8 0.1 1.3 0.7 0.2 0.7 6.5 6.5 6.5 6.5 6.5 6.5 6.5 6.5 6.5 6.2 6.5 6.5 6.5 6.5 6.5 6.5 6.5 6.5 6.4 6.5 6.5 6.5 6.5 6.5 6.5 6.5 6.5
3.6 3.4 3.4 3.5 3.1 3.0 2.9 2.4 2.2 1.6 0.9 -0.1 -0.4 -0.3 0.3 0.8 0.5 -0.1 0.0 6.1 6.5 6.5 6.5 6.5 6.5 6.5 6.5 6.5 6.5 6.5 6.5 6.5 6.5 6.5 6.5 6.5 6.5 6.5 6.5 6.5 6.5 6.5 6.5 6.5 6.5 6.5 6.5
3.8 3.6 3.6 3.4 3.2 3.0 2.9 2.6 2.2 1.8 1.3 -0.4 0.2 -1.3 -0.4 -0.3 0.4 -1.1 2.6 6.5 6.5 6.5 6.5 6.5 6.5 6.5 6.5 6.5 6.5 6.5 6.5 6.5 6.5 6.5 6.5 6.5 6.5 6.5 6.5 6.5 6.5 6.5 6.5 6.5 6.5 6.5 6.5
4.1 3.8 3.7 3.6 3.4 3.2 2.9 2.7 2.3 1.9 1.8 0.3 -2.3 -1.0 0.9 1.4 0.1 -0.5 5.3 6.5 6.5 6.5 6.5 6.5 6.5 6.5 6.5 6.5 6.5 6.5 6.5 6.5 6.5 6.3 6.1 6.5 6.5 6.5 6.5 6.5 6.3 6.5 6.5 6.5 6.5 6.5 6.5
4.3 4.0 3.9 3.8 3.6 3.2 3.1 2.9 2.6 2.0 2.2 1.3 -0.4 2.1 2.4 1.0 -0.7 1.1 6.5 6.5 6.5 6.7 6.4 6.5 6.5 6.5 6.5 6.5 6.5 6.5 6.5 6.5 6.4 6.5 5.6 6.5 6.5 6.5 6.5 6.5 6.5 6.5 6.5 6.5 6.5 6.5 6.5
4.8 4.6 4.4 4.2 3.9 3.7 3.4 3.2 2.9 2.1 2.4 0.0 0.4 5.2 2.4 0.1 3.4 3.5 6.5 6.5 5.7 6.5 6.5 6.5 6.5 6.5 6.5 6.5 6.5 6.5 6.5 6.5 6.4 6.3 6.5 6.4 6.5 6.5 6.5 6.5 6.5 6.5 6.5 6.5 6.5 6.5 6.5
5.3 5.0 4.6 4.4 4.2 3.9 3.7 3.4 3.2 2.5 1.7 -0.2 1.6 1.7 1.5 2.0 6.5 6.5 6.4 6.5 6.3 6.5 6.5 6.5 6.5 6.5 6.5 6.5 6.5 6.5 6.5 6.1 6.1 6.4 6.5 6.5 6.5 6.5 6.5 6.5 6.5 6.5 6.5 6.5 6.5 6.5 6.5
5.4 5.1 4.9 4.6 4.4 4.3 3.9 3.7 3.4 3.0 2.8 1.0 2.3 6.4 2.4 1.3 3.0 6.2 6.5 6.5 6.5 6.2 6.5 6.5 6.5 6.5 6.5 6.5 6.5 6.5 6.5 6.4 5.5 6.0 6.4 6.2 6.5 6.5 6.5 6.5 6.5 6.5 6.5 6.5 6.5 6.5 6.5
5.1 5.0 4.9 4.8 4.9 4.6 4.4 4.1 3.8 3.4 3.6 2.2 1.9 4.9 4.8 6.5 5.7 6.0 6.4 6.5 6.5 6.5 6.3 6.4 6.5 6.5 6.5 6.5 6.5 6.5 6.5 6.5 6.1 6.6 6.3 6.3 6.5 6.5 6.5 6.5 6.5 6.5 6.5 6.5 6.5 6.5 6.5
4.5 4.2 4.5 4.6 4.6 4.8 4.8 4.3 4.0 3.8 4.1 3.1 3.9 4.2 3.6 4.9 5.9 6.4 6.3 6.5 6.5 6.5 6.4 6.5 6.5 6.5 6.5 6.5 6.5 6.5 6.5 6.5 6.5 6.4 6.5 6.2 6.5 6.5 6.5 6.5 6.5 6.5 6.5 6.5 6.5 6.5 6.5
4.2 4.7 4.0 4.0 4.4 4.6 4.3 4.6 4.2 4.1 4.2 3.6 1.6 2.4 4.6 5.5 5.8 6.5 6.5 6.5 6.5 6.2 6.1 5.9 6.4 6.5 6.5 6.4 5.8 5.3 5.2 5.8 5.9 6.5 6.5 6.5 6.5 6.5 6.5 6.5 6.5 6.5 6.5 6.5 6.5 6.5 6.5
2.3 3.1 3.5 3.9 4.2 4.7 4.7 4.6 4.4 4.2 4.8 3.4 2.8 3.7 5.1 6.5 6.1 6.4 6.4 6.2 6.5 6.2 6.5 6.0 6.1 6.4 6.4 6.3 5.0 4.6 5.0 5.9 5.8 6.1 6.0 6.5 6.5 6.5 6.5 6.5 6.5 6.5 6.5 6.5 6.5 6.5 6.5
2.5 2.8 2.8 2.8 3.7 4.2 4.4 4.0 4.4 4.3 4.1 2.9 1.3 3.5 4.7 6.5 5.8 6.2 6.1 6.1 5.8 5.2 6.1 6.2 6.0 5.1 6.1 6.5 6.5 6.5 6.5 6.5 6.5 6.4 6.4 6.0 6.5 6.5 6.5 6.5 6.5 6.5 6.5 6.5 6.5 6.5 6.5
3.2 3.2 3.0 2.6 2.6 3.1 3.4 3.6 3.7 3.9 3.8 1.7 1.0 2.0 3.8 5.4 6.3 5.0 5.6 5.7 6.5 6.5 6.5 6.4 5.9 5.5 6.4 6.4 6.5 6.5 6.5 6.5 6.5 6.5 6.2 6.5 6.5 6.5 6.5 6.5 6.5 6.5 6.5 6.3 6.5 6.5 6.4
3.1 3.1 2.9 2.6 2.6 2.7 2.5 2.4 2.9 3.4 2.6 1.6 0.8 1.4 3.5 4.9 3.0 3.4 5.5 5.9 4.5 6.0 6.5 6.4 6.0 6.3 6.4 6.5 6.5 6.5 6.5 6.5 6.5 6.5 6.5 6.5 6.5 6.5 6.5 6.5 6.5 6.5 6.3 6.4 6.5 6.5 6.7
2.9 3.4 3.0 2.7 3.0 3.2 3.2 3.2 3.2 3.5 2.1 2.2 0.4 0.9 4.1 4.4 2.4 2.0 3.2 3.3 4.0 5.3 6.5 6.1 6.4 6.9 6.4 6.5 6.5 6.5 6.5 6.5 6.5 6.5 6.5 6.5 6.5 6.5 6.5 6.5 6.5 6.1 6.3 6.5 6.4 6.8 6.5
3.3 2.6 3.1 2.7 2.9 3.5 3.5 3.5 3.9 4.1 2.8 2.7 1.3 1.0 1.6 3.7 2.5 1.9 2.3 3.1 3.8 4.0 5.1 5.1 5.9 6.2 6.1 6.5 6.5 6.5 6.5 6.5 6.5 6.5 6.5 6.5 6.5 6.5 6.5 6.5 6.3 6.5 5.8 6.2 6.2 6.2 6.2
Wind_Speed
16 17 17 19 19 20 21 22 24 24 25 25 24 24 22 21 20 18 15 12 8 8 8 10 11 11 2 6 3 9 17 15 11 8 7 6 8 5 4 2 3 4 3 3 4 3 3
16 17 18 20 20 21 22 23 24 24 25 25 25 24 23 21 20 18 16 11 8 8 9 10 13 11 2 6 6 12 13 7 7 6 7 8 5 2 3 3 3 1 3 4 3 3 2
15 17 18 19 20 21 22 23 24 25 26 27 26 24 23 22 21 18 16 11 8 8 10 10 11 4 8 1 7 14 12 5 5 4 4 4 4 4 3 2 3 1 2 2 3 1 2
14 15 16 18 19 20 22 23 24 26 27 27 27 25 23 22 21 18 15 8 7 8 10 10 10 3 4 2 6 7 7 5 8 2 1 4 3 2 3 1 2 1 0 0 1 3 2
12 12 15 16 18 20 21 22 24 26 28 29 28 27 25 24 22 19 13 6 7 8 9 9 4 3 3 3 5 6 4 4 7 2 2 3 2 3 6 3 4 4 2 1 4 3 4
10 11 13 15 17 18 20 22 23 26 28 29 30 28 26 24 24 23 13 4 7 8 2 2 2 4 6 5 5 8 5 4 3 6 3 3 5 4 5 7 1 4 4 5 3 4 4
8 9 12 14 16 18 20 22 23 24 27 28 28 28 26 24 23 23 6 3 5 7 10 4 2 3 3 9 3 8 5 6 2 3 5 4 7 3 3 3 2 4 4 5 4 2 4
5 7 10 13 15 17 19 21 22 24 26 29 32 28 25 23 15 19 7 5 1 1 6 3 2 2 2 2 4 11 9 6 6 5 7 7 3 2 4 3 3 4 4 5 4 4 6
4 6 8 11 13 16 18 20 22 23 25 26 29 31 26 23 10 7 7 4 3 3 4 3 1 3 4 4 3 7 6 4 6 6 7 4 2 5 3 5 6 4 3 3 4 8 3
3 5 7 9 12 15 18 20 22 24 25 26 27 29 28 26 5 1 4 5 5 1 5 10 7 5 4 1 4 2 3 2 6 4 4 3 2 4 5 4 3 2 1 3 5 5 3
5 5 8 10 12 15 18 20 22 24 25 27 26 28 23 15 1 4 4 6 4 1 5 7 6 3 7 6 4 6 2 4 2 4 4 3 4 5 4 2 2 6 2 5 3 4 3
8 6 8 10 11 14 17 21 23 25 26 26 26 24 20 6 3 1 4 4 2 5 1 5 4 7 5 5 5 6 6 5 1 3 2 1 1 1 2 4 3 5 4 3 2 2 2
8 8 9 11 11 14 17 19 22 25 26 27 29 21 6 4 3 6 3 2 5 6 4 6 4 5 5 5 5 6 4 8 5 6 7 6 1 0 1 4 4 6 5 4 5 3 5
10 9 9 11 11 14 16 19 22 25 29 28 33 13 1 1 4 1 2 4 9 3 2 3 4 6 4 6 4 7 3 5 7 6 3 4 7 1 2 2 4 4 4 4 4 3 4
12 11 10 11 11 13 15 17 21 25 29 28 21 4 3 2 0 2 4 7 3 0 3 6 6 4 5 4 1 6 4 3 3 5 3 4 5 1 2 1 3 2 1 3 2 3 2
13 11 11 11 11 12 13 16 19 24 30 26 3 3 3 2 2 2 6 5 2 2 3 3 3 4 5 5 6 6 3 3 3 4 3 3 5 2 2 1 4 4 3 3 2 3 5
13 12 11 10 10 10 11 13 16 21 29 23 3 4 3 2 2 6 5 2 3 1 2 3 1 2 4 3 3 4 3 2 4 5 5 2 2 7 3 4 4 1 3 2 2 3 3
14 13 11 10 9 8 9 10 13 17 27 7 2 3 3 1 5 3 3 2 2 1 1 2 1 2 2 3 3 3 2 2 1 0 3 4 2 5 10 3 2 3 4 2 2 5 2
16 14 13 11 10 8 7 7 8 10 14 2 2 2 4 4 4 3 0 2 1 0 1 3 2 3 1 2 3 1 3 4 4 3 3 2 1 5 6 0 3 2 1 3 1 1 10
18 17 16 14 11 10 8 6 5 5 8 2 2 3 4 4 1 5 1 2 2 1 1 2 1 2 2 3 4 4 2 3 5 3 6 3 2 7 8 5 5 12 9 8 4 5 6
21 20 19 16 15 13 10 8 5 4 4 2 3 1 1 2 3 3 2 3 3 3 1 2 1 3 1 3 4 5 3 5 1 4 2 3 5 5 11 10 10 16 17 14 14 15 9
21 21 21 19 17 17 15 11 9 7 1 3 2 3 1 0 1 1 2 4 4 1 5 3 4 4 3 5 6 4 5 1 5 2 2 1 4 4 8 5 5 12 12 14 11 9 10
24 26 22 20 20 19 18 16 14 13 6 2 1 1 2 1 1 2 3 3 4 4 2 2 1 2 5 6 2 5 6 6 4 2 1 2 2 3 5 8 12 5 4 3 4 2 4
12 3 23 23 24 23 21 19 20 19 14 2 3 3 3 3 3 5 2 2 2 1 1 1 1 2 1 5 6 6 7 9 6 4 4 4 2 2 4 6 3 1 2 2 3 6 6
7 7 9 10 25 25 25 24 23 24 25 3 3 3 3 3 2 2 4 4 2 1 3 4 4 1 4 4 3 6 3 2 3 4 3 3 3 3 3 2 8 3 3 3 4 1 5
6 6 7 8 9 2 19 22 24 26 28 5 2 2 3 4 6 3 4 4 4 3 2 3 2 2 1 1 1 2 3 2 2 3 4 1 1 3 1 3 5 2 1 3 1 4 4
1 2 4 5 6 4 5 6 6 24 26 6 2 4 3 3 3 4 4 4 5 2 1 1 2 1 1 2 3 4 4 1 3 3 3 1 1 7 7 4 6 1 3 2 0 1 4
1 2 2 1 2 1 2 3 3 3 23 6 2 4 2 2 1 4 4 4 2 3 4 3 2 1 2 3 3 3 3 3 1 3 5 6 5 4 3 4 7 2 1 1 1 1 2
3 4 1 3 3 1 1 1 1 1 20 8 2 3 3 3 2 2 2 3 3 2 3 4 1 3 4 2 1 1 3 2 3 3 2 3 5 2 6 3 2 2 3 4 3 2 4
Wind_Direction
42 42 38 35 28 23 19 18 14 10 10 6 3 1 360 357 355 354 355 358 2 358 352 342 342 351 341 48 31 326 343 356 356 3 26 5 33 16 69 41 28 86 157 90 138 183 231
42 41 37 34 27 25 21 19 14 9 8 5 3 0 358 354 352 354 352 351 346 347 341 342 345 336 18 64 295 336 347 350 8 22 27 30 14 328 335 41 59 19 60 133 197 218 251
43 40 37 32 26 23 21 17 13 8 7 3 1 0 357 353 350 355 352 347 333 334 337 333 346 344 59 84 324 342 360 324 360 32 22 6 345 54 323 65 327 76 0 315 255 263 337
44 38 37 34 26 20 18 15 9 6 4 4 1 358 356 352 349 350 348 342 323 324 331 326 335 34 73 290 322 349 348 338 356 328 74 292 349 353 55 264 339 234 167 250 223 12 275
46 34 33 32 25 18 13 12 8 5 1 0 1 356 354 351 344 347 342 326 318 315 305 319 5 45 20 308 7 317 12 323 309 311 246 277 29 67 9 10 19 3 285 237 332 30 345
44 27 28 25 23 16 10 8 6 3 358 357 357 355 351 349 346 350 343 312 317 321 311 303 356 53 16 321 311 318 308 310 329 324 28 25 49 63 25 35 268 316 341 344 338 353 359
35 22 21 18 17 13 6 5 2 1 356 354 356 353 350 347 347 355 7 11 28 357 35 89 260 86 342 309 304 350 335 328 282 24 15 359 61 63 342 354 305 306 311 325 291 324 5
19 15 12 13 11 10 4 0 358 357 354 353 351 352 350 345 352 12 53 71 86 213 76 23 9 96 239 0 346 343 2 40 28 19 357 28 72 290 312 288 319 320 317 323 298 337 352
1 1 2 7 4 4 357 355 353 353 352 351 350 347 345 345 337 44 81 62 303 353 101 19 16 40 307 21 39 327 24 337 37 31 15 96 260 315 339 14 28 36 47 351 267 320 299
312 339 349 355 358 357 351 350 350 350 349 349 351 348 343 347 52 25 59 333 325 333 84 330 351 352 323 151 25 321 8 84 23 42 2 77 295 0 342 58 42 355 310 305 309 13 256
284 316 327 341 349 348 344 346 348 347 346 346 349 347 347 27 246 49 306 328 302 50 67 323 330 289 306 68 297 338 339 27 67 312 72 292 12 8 24 327 16 250 311 259 215 243 11
272 295 308 323 335 339 337 345 345 344 343 343 343 346 345 25 40 285 312 331 49 45 314 336 347 356 14 25 6 328 14 30 37 357 315 107 130 83 212 281 230 280 304 318 158 87 345
266 282 294 307 323 327 334 342 341 340 340 340 338 338 350 333 324 323 342 62 49 79 302 321 329 352 345 337 343 9 79 40 41 27 5 338 334 180 89 328 325 16 34 339 350 0 237
254 267 282 295 312 322 331 339 339 339 338 339 334 335 331 275 311 312 88 57 69 275 329 359 325 321 49 3 325 338 45 34 16 29 50 33 332 325 298 150 239 297 125 146 271 276 279
251 261 274 293 308 321 331 336 340 338 337 339 337 343 337 250 287 87 68 52 159 306 313 336 316 53 3 342 324 30 55 47 41 27 78 21 276 243 266 260 133 336 194 178 256 234 44
248 258 270 283 301 315 327 335 341 337 336 340 353 347 294 336 139 69 67 110 119 16 332 339 50 30 10 335 20 22 27 305 351 36 65 273 285 265 275 344 270 198 263 35 19 299 284
241 249 261 273 290 309 321 334 341 339 337 339 26 31 269 3 89 46 91 91 118 137 35 42 35 7 1 1 299 336 21 3 30 332 337 329 175 292 15 207 202 311 294 244 205 185 236
240 245 254 266 280 297 314 333 341 345 345 43 10 42 300 80 49 46 53 40 327 39 306 297 29 350 352 330 312 340 354 203 160 1 351 353 276 280 243 319 202 164 205 160 144 299 286
243 247 251 258 269 281 298 316 333 350 17 356 31 271 311 64 83 44 201 86 85 154 23 358 25 31 30 296 334 7 294 200 166 137 146 337 258 308 324 52 355 4 230 210 123 300 246
238 245 248 251 255 262 268 278 298 329 2 76 49 16 337 36 107 111 94 175 177 208 114 64 359 359 320 288 226 277 256 216 202 175 141 107 246 206 244 273 327 292 299 296 208 255 296
239 242 247 249 250 249 245 242 241 260 342 82 38 278 186 335 10 91 186 195 185 193 222 147 200 212 168 292 293 236 214 346 235 141 115 125 258 243 274 297 286 281 284 278 258 259 238
241 243 245 245 246 249 242 227 215 213 225 74 119 120 359 332 74 184 220 203 199 200 158 221 203 175 199 226 217 298 16 172 253 286 183 175 272 306 284 248 311 286 275 271 263 261 261
236 239 239 242 244 245 242 228 209 198 180 105 205 30 122 156 104 157 229 199 191 136 32 46 164 178 255 262 330 263 237 255 246 142 234 248 247 354 274 337 310 280 203 312 304 12 330
44 269 231 233 239 241 239 230 211 199 186 135 171 127 120 228 180 204 197 105 129 50 251 176 175 169 331 313 287 268 243 241 214 218 189 250 131 173 282 337 293 142 47 354 328 41 19
41 30 39 242 230 233 235 232 217 207 194 130 154 138 160 215 186 196 178 138 120 173 245 230 196 37 344 320 344 331 336 29 28 45 2 345 148 261 266 268 287 139 14 42 31 25 30
50 44 41 50 57 139 229 226 216 207 195 138 158 128 157 141 222 101 139 174 189 195 242 235 63 24 263 149 116 239 262 284 261 312 3 17 23 183 178 253 267 111 115 3 341 260 21
58 49 45 38 37 52 66 63 195 206 180 130 127 164 122 182 191 144 184 176 157 166 159 140 188 142 216 150 186 209 240 226 257 236 174 137 239 218 232 261 280 148 302 322 28 252 12
288 238 150 65 26 13 71 62 50 110 163 122 102 180 161 140 173 193 177 146 126 209 169 139 114 219 142 196 193 234 201 228 273 223 189 180 178 205 188 240 264 322 3 184 91 61 25
252 195 165 196 204 157 330 167 203 309 154 124 97 67 23 81 106 15 24 359 343 69 131 181 236 158 172 176 211 154 231 179 200 260 237 233 203 200 195 238 126 41 93 88 77 38 357